Location: Unspecified
(0.0000°N, 0.0000°E)
Time: 10:33:46
(UTC+00:00)

Explorer 11/Cluster Stage 4 - Pass Details

Date: 05 October 2020
Orbit: 467 x 1258 km, 28.8° (Epoch: 28 October)

Event Time Altitude Azimuth Distance (km) Brightness Sun altitude
Rises 08:53:56 0° 255° (WSW) 4,192 9.9 46.2°
Reaches altitude 10° 08:58:42 10° 232° (SW) 3,225 9.5 47.4°
Maximum altitude 09:02:38 14° 203° (SSW) 2,880 9.5 48.3°
Drops below altitude 10° 09:06:28 10° 174° (S) 3,113 9.9 49.3°
Sets 09:10:56 0° 150° (SSE) 3,948 10.5 50.4°
